Powrót do katalogu

OPS 0856 DEB

LostPO
NORAD 27636·DEBRIS·🇺🇸 United States

Wystrzelony Aug 19, 1966 z Vandenberg Space Force Base

Loading…

Następne Przeloty (najbliższe 24 godziny)

TLE

NieaktualneSource: Space-Track

Epoka: Dec 9, 2016, 00:45 UTC

1 27636U 66077AB  16344.03192326  .00000003  00000-0  10000-3 0  9991
2 27636  89.7355  14.9583 1054559  15.3386 347.7499  8.65225237489877

Śledź OPS 0856 DEB w czasie rzeczywistym z AllMySat

Download on the App Store